Location: Unspecified
(34.4480°N, 0.0000°E)
Time: 20:58:15
(UTC+00:00)

JUGNU - Visible Passes

Search period start: 20 January 2020 00:00
Search period end: 30 January 2020 00:00
Orbit: 836 x 864 km, 20.0° (Epoch: 20 January)

Date Brightness Start Highest point End Pass type
(mag) Time Alt. Az. Time Alt. Az. Time Alt. Az.
20 Jan ? 04:14:23 17° SSE 04:14:23 17° SSE 04:17:08 10° SE visible
20 Jan ? 05:57:36 10° SW 06:01:33 18° S 06:05:29 10° SE visible
21 Jan ? 04:00:15 15° SSE 04:00:15 15° SSE 04:01:59 10° SE visible
21 Jan ? 05:42:25 10° SW 05:46:19 18° S 05:50:11 10° SE visible
22 Jan ? 03:46:06 12° SE 03:46:06 12° SE 03:46:47 10° SE visible
22 Jan ? 05:27:57 12° SW 05:31:04 18° S 05:34:51 10° SSE visible
23 Jan ? 05:13:47 14° SSW 05:15:49 17° S 05:19:30 10° SSE visible
24 Jan ? 04:59:37 16° SSW 05:00:34 16° S 05:04:07 10° SSE visible
25 Jan ? 04:45:26 16° S 04:45:26 16° S 04:48:42 10° SSE visible
26 Jan ? 04:31:16 14° S 04:31:16 14° S 04:33:15 10° SSE visible
27 Jan ? 04:17:06 11° SSE 04:17:06 11° SSE 04:17:45 10° SSE visible
